This is the latest recevied weather packets stored in our database for station/object KC3ROS. If no packets are shown the sender has not sent any weather packets the latest 10 day(s).
| Time | Temp. | Humidity | Pressure | Rain* | Wind** | Luminosity | Snow |
|---|---|---|---|---|---|---|---|
| 1778112453 | 10.56° C | 65% | 1011.5 hPa | 0 mm | - | 5 W/m² | - |
| 1778112149 | 10.56° C | 64% | 1011.5 hPa | 0 mm | - | 5 W/m² | - |
| 1778111846 | 10.56° C | 65% | 1011.7 hPa | 0 mm | - | 6 W/m² | - |
| 1778111541 | 10.56° C | 65% | 1011.6 hPa | 0 mm | - | 8 W/m² | - |
| 1778111238 | 10.56° C | 66% | 1011.8 hPa | 0 mm | - | 7 W/m² | - |
| 1778110936 | 10.56° C | 66% | 1011.7 hPa | 0 mm | - | 8 W/m² | - |
| 1778110633 | 10.56° C | 66% | 1011.5 hPa | 0 mm | - | 13 W/m² | - |
| 1778110329 | 10.56° C | 65% | 1011.5 hPa | 0 mm | - | 15 W/m² | - |
| 1778110026 | 11.11° C | 64% | 1011.1 hPa | 0 mm | - | 24 W/m² | - |
| 1778109721 | 11.11° C | 65% | 1011.3 hPa | 0 mm | - | 25 W/m² | - |
| 1778109419 | 11.11° C | 66% | 1011.3 hPa | 0 mm | - | 23 W/m² | - |
| 1778109117 | 11.11° C | 68% | 1011 hPa | 0 mm | - | 23 W/m² | - |
| 1778108813 | 11.11° C | 67% | 1011 hPa | 0 mm | - | 24 W/m² | - |
| 1778108510 | 11.11° C | 66% | 1011.1 hPa | 0 mm | - | 31 W/m² | - |
| 1778108207 | 11.11° C | 67% | 1010.9 hPa | 0 mm | - | 40 W/m² | - |
| 1778107904 | 11.67° C | 67% | 1010.6 hPa | 0 mm | - | 54 W/m² | - |
| 1778107600 | 11.67° C | 66% | 1010.6 hPa | 0 mm | - | 59 W/m² | - |
| 1778107296 | 11.67° C | 66% | 1010.6 hPa | 0 mm | - | 49 W/m² | - |
| 1778106993 | 11.67° C | 67% | 1010.6 hPa | 0 mm | - | 44 W/m² | - |
| 1778106689 | 11.67° C | 65% | 1010.5 hPa | 0 mm | - | 49 W/m² | - |
| 1778106386 | 11.67° C | 66% | 1010.5 hPa | 0 mm | - | 65 W/m² | - |
| 1778106082 | 11.67° C | 69% | 1010.3 hPa | 0 mm | - | 62 W/m² | - |
| 1778105780 | 12.22° C | 68% | 1010.5 hPa | 0 mm | - | 55 W/m² | - |
| 1778105478 | 12.22° C | 68% | 1010.3 hPa | 0 mm | - | 60 W/m² | - |
| 1778105175 | 12.22° C | 66% | 1010.2 hPa | 0 mm | - | 84 W/m² | - |
* Rain latest hour (hover to see other rain measurements)
** Current wind speed in m/s (hover to see current wind gust speed)